941  
AXUS43 KLBF 232010  
MISLBF  
 
WESTERN AND NORTH CENTRAL NEBRASKA HOURLY WEATHER ROUNDUP  
NATIONAL WEATHER SERVICE NORTH PLATTE NE  
300 PM CDT SUN JUL 23 2017  
 
NOTE: "FAIR" INDICATES FEW OR NO CLOUDS BELOW 12,000 FEET WITH NO  
SIGNIFICANT WEATHER AND/OR OBSTRUCTIONS TO VISIBILITY.  
 
NOTE: STATIONS NOT REPORTING VARIABLES SUCH AS SKY/WEATHER OR  
PRESSURE ARE PROVIDED BY RAWS AND APRS NETWORKS AND ARE NOT UNDER  
NATIONAL WEATHER SERVICE QUALITY CONTROL.  
   
..OBSERVATIONS IN AND NEAR THE EASTERN PANHANDLE OF NEBRASKA
 
 
 
CITY SKY/WX TMP DP RH WIND PRES REMARKS  
PINE RIDGE SUNNY 90 55 30 E8 30.07F  
GORDON FAIR 88 54 30 SE10 30.08F  
CHADRON SUNNY 93 52 24 S9 30.03F HX 90  
ALLIANCE SUNNY 94 48 20 VRB6 30.08F HX 90  
SIDNEY SUNNY 95 43 16 S12 30.13F HX 91  
CRESCENT LAKE N/A 94 50 22 S6 N/A HX 91  

 
   
..OBSERVATIONS IN NORTHERN NEBRASKA AND FAR SOUTHERN SOUTH DAKOTA
 
 
 
CITY SKY/WX TMP DP RH WIND PRES REMARKS  
WINNER FAIR 91 50 24 NE10G17 30.03F  
VALENTINE SUNNY 93 42 17 VRB3 30.05F  
THEDFORD SUNNY 91 52 26 CALM 30.07F  
AINSWORTH SUNNY 87 53 31 E3 30.07S  
O'NEILL SUNNY 83 60 46 N6 30.05S  
ORD SUNNY 89 52 28 NE5 30.02F  
BROKEN BOW SUNNY 90 57 32 NE8 30.05S  
VALENTINE NWR N/A 87 51 28 E6 N/A  
HALSEY N/A 91 49 23 E6G13 N/A  
BUTTE N/A 82 56 40 N5G12 N/A  
CHAMBERS N/A 87 58 37 CALM N/A  
EWING N/A 85 62 45 NE3 N/A  

 
   
..OBSERVATIONS IN SOUTHWEST NEBRASKA AND FAR NORTHEAST COLORADO
 
 
 
CITY SKY/WX TMP DP RH WIND PRES REMARKS  
HOLYOKE FAIR 95 43 16 S10 30.10F HX 91  
IMPERIAL SUNNY 95 43 16 VRB6 30.06F HX 91  
OGALLALA SUNNY 94 47 20 S5 30.07F HX 91  
NORTH PLATTE SUNNY 93 45 19 N3 30.04F  
MCCOOK SUNNY 94 53 25 VRB3 30.03F HX 91  
LEXINGTON SUNNY 88 63 42 SE6 30.04S  
STAPLETON N/A 91 56 30 CALM N/A  
GOTHENBURG N/A 92 50 23 E3 N/A  
CALLAWAY N/A 95 66 38 SE6 N/A HX 98  

 
   
..OBSERVATIONS IN CENTRAL LINCOLN COUNTY AREA
 
 
 
CITY SKY/WX TMP DP RH WIND PRES REMARKS  
N.P. AIRPORT SUNNY 93 45 19 N3 30.04F  
N.P. DOWNTOWN N/A 93 48 21 NW3 N/A  
N.P. SOUTHEAST N/A 94 47 19 NW3 N/A HX 90  
N.P. HILLCREST N/A 92 42 17 W7 N/A  

 
   
..SOME OBSERVATIONS FROM AROUND THE REGION
 
 
 
CITY SKY/WX TMP DP RH WIND PRES REMARKS  
DENVER CLOUDY 89 45 21 E10 30.17F  
LIMON SUNNY 86 46 24 E12 30.20F  
ASPEN CLOUDY 82 33 17 CALM 30.30F  
LARAMIE MOSUNNY 81 31 16 NE6 30.29F  
CASPER SUNNY 92 30 11 S7 30.11F  
CHEYENNE MOSUNNY 89 43 20 VRB7 30.22F  
SCOTTSBLUFF SUNNY 93 55 27 E10 30.07F HX 91  
GRAND ISLAND SUNNY 89 62 40 NE13 30.01F  
OMAHA MOSUNNY 90 61 37 N16 29.95R HX 90  
SIOUX FALLS MOSUNNY 80 61 52 N14G21 30.00F  
PIERRE SUNNY 86 49 27 MISG 30.01F  
RAPID CITY SUNNY 89 46 22 SE14G20 30.06F  
BISMARCK SUNNY 83 55 38 CALM 30.02F  
KANSAS CITY MOSUNNY 91 73 55 VRB6 29.92F HX 99  
HILL CITY SUNNY 95 59 30 E10 30.02F HX 94  
WICHITA PTSUNNY 93 69 45 NW10 29.95F HX 98  
DODGE CITY CLOUDY 89 64 43 MISG 30.03F HX 90  
OKLAHOMA CITY MOSUNNY 96 69 41 VRB7 29.90F HX 102  
DALLAS MOSUNNY 99 69 37 S9 29.84F HX 105  
AMARILLO SUNNY 90 58 33 E12G20 30.06F  

 
 
 
CLICK HERE TO GO TO PREVIOUS BULLETINS.

The Nexlab NE Page Main Text Page